ATLAS 5 CENTAUR DEB, 55855

Orbit data source: Space-Track

ATLAS 5 CENTAUR DEB, 55855 is space debris in HEO originally from a launch on Wed, 17 Oct 2018 UTC launched from the Air Force Eastern Test Range (AFETR). Debris objects in space refer to the collection of defunct objects orbiting the Earth. Examples of debris include non-operational satellites, rocket bodies, and fragments generated from explosions, collisions, or faulty payload assembly.

Loading next visibility...
Identifier
55855, 2018-079HH
Orbit
HEO
Country
Flag of USUS
Related business
Flag of USUnited Launch Alliance/Lockheed Martin (US)
Manufacturer
ULA Decatur
Mission
Spacecraft
Bus & Motor
Unknown
Mass
Unknown
Launch date (UTC)
2018-10-17 (8 years ago)
Launch vehicle
Unknown
Launch site
Air Force Eastern Test Range (AFETR)
Object type
Payload
Rocket body
Debris
Shape & HBR
Unknown shape, 1.1 m
Radar Cross Section
RCS unknown

Expand to show TLE details & history
Last TLE update: 2 days ago

TLE from 2 days ago
0 ATLAS 5 CENTAUR DEB
1 55855U 18079HH  26206.86353326 -.00000101  00000-0  00000-0 0  9998
2 55855  13.3776  12.4201 4630172   6.0321 357.9952  1.90887347 18817
Epoch: 2026-07-25T20:43Z
TLE epoch observation values (Epoch: 2026-07-25T20:43:29.273Z)
Latitude
0.00013°
Longitude
117.99991°
Altitude
8,416.543 km
Speed
6.274 km/s
True Right ascension
00h 49m 45s
True Declination
0° 00' 00"
Sunlit
Object was in daylight at epoch
Visualization orbit readout
Latitude
Unknown
Longitude
Unknown
Altitude
Unknown
Speed
Unknown
Apparent Right ascension
Unknown
Apparent Declination
Unknown
Sunlit
N/A
Visualization observer readout
Local Sidereal Time
09:19:49
Azimuth
Unknown
Elevation
Unknown
Doppler factor
Unknown
Orbital elements
Apogee altitude
33,785.556 km
Perigee altitude
8,363.462 km
Semi-major axis
27,452.646 km
Eccentricity
0.46302
Inclination
13.3776°
RAAN
12.4201°
Arg. of periapsis
6.0321°
True anomaly
353.84503°
Mean anomaly
357.9952°
Eccentric anomaly
356.26882°
Mean motion
0.47716 °/min
Orbital period
754.46 mins
BSTAR
0
Loading maneuver chart data...
Computing Atmospheric mass density...

Documentation

Showing up to 5 results
|